Time,TemperatureF,DewpointF,PressureIn,WindDirection,WindDirectionDegrees,WindSpeedMPH,WindSpeedGustMPH,Humidity,HourlyPrecipIn,Conditions,Clouds,dailyrainin,SoftwareType,DateUTC
2013-03-30 00:02:00,32.0,32.0,-100.00,West,265,1.0,2.0,97,-99.99,,,-99.99,,2013-03-30 08:02:00,
2013-03-30 00:12:00,32.0,32.0,-100.00,West,265,1.0,2.0,97,-99.99,,,-99.99,,2013-03-30 08:12:00,
2013-03-30 00:21:00,32.0,32.0,-100.00,NNW,330,2.0,3.0,97,-99.99,,,-99.99,,2013-03-30 08:21:00,
2013-03-30 00:32:00,32.0,32.0,-100.00,NNW,330,2.0,3.0,97,-99.99,,,-99.99,,2013-03-30 08:32:00,
2013-03-30 00:42:00,32.0,32.0,-100.00,NNW,330,2.0,3.0,97,-99.99,,,-99.99,,2013-03-30 08:42:00,
2013-03-30 00:52:00,32.0,32.0,-100.00,NNW,340,1.0,4.0,97,-99.99,,,-99.99,,2013-03-30 08:52:00,
2013-03-30 01:02:00,32.0,32.0,-100.00,NNW,340,1.0,4.0,97,-99.99,,,-99.99,,2013-03-30 09:02:00,
2013-03-30 01:12:00,32.0,32.0,-100.00,NNW,340,1.0,4.0,97,-99.99,,,-99.99,,2013-03-30 09:12:00,
2013-03-30 01:23:00,32.0,32.0,-100.00,North,0,0.0,0.0,98,-99.99,,,-99.99,,2013-03-30 09:23:00,
2013-03-30 01:33:00,32.0,32.0,-100.00,North,0,0.0,0.0,98,-99.99,,,-99.99,,2013-03-30 09:33:00,
2013-03-30 01:43:00,32.0,32.0,-100.00,North,0,0.0,0.0,98,-99.99,,,-99.99,,2013-03-30 09:43:00,
2013-03-30 01:53:00,32.0,31.0,-100.00,East,95,1.0,1.0,98,-99.99,,,-99.99,,2013-03-30 09:53:00,
2013-03-30 02:02:00,32.0,31.0,-100.00,East,95,1.0,1.0,98,-99.99,,,-99.99,,2013-03-30 10:02:00,
2013-03-30 02:12:00,32.0,31.0,-100.00,East,95,1.0,1.0,98,-99.99,,,-99.99,,2013-03-30 10:12:00,
2013-03-30 02:22:00,31.0,31.0,-100.00,East,80,0.0,0.0,98,-99.99,,,-99.99,,2013-03-30 10:22:00,
2013-03-30 02:32:00,31.0,31.0,-100.00,East,80,0.0,0.0,98,-99.99,,,-99.99,,2013-03-30 10:32:00,
2013-03-30 02:42:00,31.0,31.0,-100.00,East,80,0.0,0.0,98,-99.99,,,-99.99,,2013-03-30 10:42:00,
2013-03-30 02:52:00,31.0,30.0,-100.00,ENE,75,0.0,0.0,98,-99.99,,,-99.99,,2013-03-30 10:52:00,
2013-03-30 03:03:00,31.0,30.0,-100.00,ENE,75,0.0,0.0,98,-99.99,,,-99.99,,2013-03-30 11:03:00,
2013-03-30 03:12:00,31.0,30.0,-100.00,ENE,75,0.0,0.0,98,-99.99,,,-99.99,,2013-03-30 11:12:00,
2013-03-30 03:22:00,30.0,30.0,-100.00,ESE,120,0.0,0.0,99,-99.99,,,-99.99,,2013-03-30 11:22:00,
2013-03-30 03:32:00,30.0,30.0,-100.00,ESE,120,0.0,0.0,99,-99.99,,,-99.99,,2013-03-30 11:32:00,
2013-03-30 03:42:00,30.0,30.0,-100.00,ESE,120,0.0,0.0,99,-99.99,,,-99.99,,2013-03-30 11:42:00,
2013-03-30 03:52:00,30.0,29.0,-100.00,East,80,0.0,1.0,99,-99.99,,,-99.99,,2013-03-30 11:52:00,
2013-03-30 04:02:00,30.0,29.0,-100.00,East,80,0.0,1.0,99,-99.99,,,-99.99,,2013-03-30 12:02:00,
2013-03-30 04:12:00,30.0,29.0,-100.00,East,80,0.0,1.0,99,-99.99,,,-99.99,,2013-03-30 12:12:00,
2013-03-30 04:22:00,29.0,29.0,-100.00,East,95,1.0,2.0,99,-99.99,,,-99.99,,2013-03-30 12:22:00,
2013-03-30 04:32:00,29.0,29.0,-100.00,East,95,1.0,2.0,99,-99.99,,,-99.99,,2013-03-30 12:32:00,
2013-03-30 04:42:00,29.0,29.0,-100.00,East,95,1.0,2.0,99,-99.99,,,-99.99,,2013-03-30 12:42:00,
2013-03-30 05:02:00,29.0,29.0,-100.00,East,90,1.0,2.0,99,-99.99,,,-99.99,,2013-03-30 13:02:00,
2013-03-30 05:12:00,29.0,29.0,-100.00,East,90,1.0,2.0,99,-99.99,,,-99.99,,2013-03-30 13:12:00,
2013-03-30 05:22:00,29.0,29.0,-100.00,East,90,0.0,1.0,99,-99.99,,,-99.99,,2013-03-30 13:22:00,
2013-03-30 05:32:00,29.0,29.0,-100.00,East,90,0.0,1.0,99,-99.99,,,-99.99,,2013-03-30 13:32:00,
2013-03-30 05:42:00,29.0,29.0,-100.00,East,90,0.0,1.0,99,-99.99,,,-99.99,,2013-03-30 13:42:00,
2013-03-30 05:52:00,29.0,29.0,-100.00,East,95,1.0,2.0,99,-99.99,,,-99.99,,2013-03-30 13:52:00,
2013-03-30 06:02:00,29.0,29.0,-100.00,East,95,1.0,2.0,99,-99.99,,,-99.99,,2013-03-30 14:02:00,
2013-03-30 06:11:00,29.0,29.0,-100.00,East,95,1.0,2.0,99,-99.99,,,-99.99,,2013-03-30 14:11:00,
2013-03-30 06:21:00,29.0,29.0,-100.00,East,95,1.0,1.0,99,-99.99,,,-99.99,,2013-03-30 14:21:00,
2013-03-30 06:32:00,29.0,29.0,-100.00,East,95,1.0,1.0,99,-99.99,,,-99.99,,2013-03-30 14:32:00,
2013-03-30 06:42:00,29.0,29.0,-100.00,East,95,1.0,1.0,99,-99.99,,,-99.99,,2013-03-30 14:42:00,
2013-03-30 06:52:00,29.0,29.0,-100.00,ESE,115,1.0,2.0,99,-99.99,,,-99.99,,2013-03-30 14:52:00,
2013-03-30 07:01:00,29.0,29.0,-100.00,ESE,115,1.0,2.0,99,-99.99,,,-99.99,,2013-03-30 15:01:00,
2013-03-30 07:12:00,29.0,29.0,-100.00,ESE,115,1.0,2.0,99,-99.99,,,-99.99,,2013-03-30 15:12:00,
2013-03-30 07:22:00,29.0,29.0,-100.00,East,85,1.0,1.0,99,-99.99,,,-99.99,,2013-03-30 15:22:00,
2013-03-30 07:34:00,29.0,29.0,-100.00,East,85,1.0,1.0,99,-99.99,,,-99.99,,2013-03-30 15:34:00,
2013-03-30 07:43:00,29.0,29.0,-100.00,East,85,1.0,1.0,99,-99.99,,,-99.99,,2013-03-30 15:43:00,
2013-03-30 07:52:00,29.0,28.0,-100.00,East,95,1.0,2.0,99,-99.99,,,-99.99,,2013-03-30 15:52:00,
2013-03-30 08:02:00,29.0,28.0,-100.00,East,95,1.0,2.0,99,-99.99,,,-99.99,,2013-03-30 16:02:00,
2013-03-30 08:12:00,29.0,28.0,-100.00,East,95,1.0,2.0,99,-99.99,,,-99.99,,2013-03-30 16:12:00,
2013-03-30 08:22:00,29.0,28.0,-100.00,East,95,1.0,2.0,99,-99.99,,,-99.99,,2013-03-30 16:22:00,
2013-03-30 08:32:00,29.0,28.0,-100.00,East,95,1.0,2.0,99,-99.99,,,-99.99,,2013-03-30 16:32:00,
2013-03-30 08:42:00,29.0,28.0,-100.00,East,95,1.0,2.0,99,-99.99,,,-99.99,,2013-03-30 16:42:00,
2013-03-30 08:52:00,29.0,29.0,-100.00,ESE,105,1.0,2.0,99,-99.99,,,-99.99,,2013-03-30 16:52:00,
2013-03-30 09:02:00,29.0,29.0,-100.00,ESE,105,1.0,2.0,99,-99.99,,,-99.99,,2013-03-30 17:02:00,
2013-03-30 09:13:00,29.0,29.0,-100.00,ESE,105,1.0,2.0,99,-99.99,,,-99.99,,2013-03-30 17:13:00,
2013-03-30 09:22:00,30.0,30.0,-100.00,East,85,2.0,2.0,99,-99.99,,,-99.99,,2013-03-30 17:22:00,
2013-03-30 09:32:00,30.0,30.0,-100.00,East,85,2.0,2.0,99,-99.99,,,-99.99,,2013-03-30 17:32:00,
2013-03-30 09:42:00,30.0,30.0,-100.00,East,85,2.0,2.0,99,-99.99,,,-99.99,,2013-03-30 17:42:00,
2013-03-30 09:52:00,31.0,31.0,-100.00,SSE,150,0.0,0.0,99,-99.99,,,-99.99,,2013-03-30 17:52:00,
2013-03-30 10:02:00,31.0,31.0,-100.00,SSE,150,0.0,0.0,99,-99.99,,,-99.99,,2013-03-30 18:02:00,
2013-03-30 10:12:00,31.0,31.0,-100.00,SSE,150,0.0,0.0,99,-99.99,,,-99.99,,2013-03-30 18:12:00,
2013-03-30 10:22:00,32.0,32.0,-100.00,NNE,25,3.0,5.0,99,-99.99,,,-99.99,,2013-03-30 18:22:00,
2013-03-30 10:32:00,32.0,32.0,-100.00,NNE,25,3.0,5.0,99,-99.99,,,-99.99,,2013-03-30 18:32:00,
2013-03-30 10:42:00,32.0,32.0,-100.00,NNE,25,3.0,5.0,99,-99.99,,,-99.99,,2013-03-30 18:42:00,
2013-03-30 10:52:00,33.0,33.0,-100.00,North,350,0.0,2.0,99,-99.99,,,-99.99,,2013-03-30 18:52:00,
2013-03-30 11:02:00,33.0,33.0,-100.00,North,350,0.0,2.0,99,-99.99,,,-99.99,,2013-03-30 19:02:00,
2013-03-30 11:12:00,33.0,33.0,-100.00,North,350,0.0,2.0,99,-99.99,,,-99.99,,2013-03-30 19:12:00,
2013-03-30 11:22:00,33.0,33.0,-100.00,NNW,330,0.0,2.0,99,-99.99,,,-99.99,,2013-03-30 19:22:00,
2013-03-30 11:32:00,33.0,33.0,-100.00,NNW,330,0.0,2.0,99,-99.99,,,-99.99,,2013-03-30 19:32:00,
2013-03-30 11:42:00,33.0,33.0,-100.00,NNW,330,0.0,2.0,99,-99.99,,,-99.99,,2013-03-30 19:42:00,
2013-03-30 11:52:00,33.0,33.0,-100.00,NW,325,2.0,4.0,99,-99.99,,,-99.99,,2013-03-30 19:52:00,
2013-03-30 12:02:00,33.0,33.0,-100.00,NW,325,2.0,4.0,99,-99.99,,,-99.99,,2013-03-30 20:02:00,
2013-03-30 12:12:00,33.0,33.0,-100.00,NW,325,2.0,4.0,99,-99.99,,,-99.99,,2013-03-30 20:12:00,
2013-03-30 12:21:00,34.0,33.0,-100.00,NW,320,4.0,6.0,98,-99.99,,,-99.99,,2013-03-30 20:21:00,
2013-03-30 12:32:00,34.0,33.0,-100.00,NW,320,4.0,6.0,98,-99.99,,,-99.99,,2013-03-30 20:32:00,
2013-03-30 12:42:00,34.0,33.0,-100.00,NW,320,4.0,6.0,98,-99.99,,,-99.99,,2013-03-30 20:42:00,
2013-03-30 12:52:00,35.0,34.0,-100.00,WNW,285,1.0,5.0,95,-99.99,,,-99.99,,2013-03-30 20:52:00,
2013-03-30 13:02:00,35.0,34.0,-100.00,WNW,285,1.0,5.0,95,-99.99,,,-99.99,,2013-03-30 21:02:00,
2013-03-30 13:12:00,35.0,34.0,-100.00,WNW,285,1.0,5.0,95,-99.99,,,-99.99,,2013-03-30 21:12:00,
2013-03-30 13:22:00,36.0,33.0,-100.00,NW,315,3.0,6.0,90,-99.99,,,-99.99,,2013-03-30 21:22:00,
2013-03-30 13:33:00,36.0,33.0,-100.00,NW,315,3.0,6.0,90,-99.99,,,-99.99,,2013-03-30 21:33:00,
2013-03-30 13:43:00,36.0,33.0,-100.00,NW,315,3.0,6.0,90,-99.99,,,-99.99,,2013-03-30 21:43:00,
2013-03-30 13:52:00,37.0,33.0,-100.00,WNW,295,3.0,5.0,87,-99.99,,,-99.99,,2013-03-30 21:52:00,
2013-03-30 14:02:00,37.0,33.0,-100.00,WNW,295,3.0,5.0,87,-99.99,,,-99.99,,2013-03-30 22:02:00,
2013-03-30 14:12:00,37.0,33.0,-100.00,WNW,295,3.0,5.0,87,-99.99,,,-99.99,,2013-03-30 22:12:00,
2013-03-30 14:23:00,36.0,32.0,-100.00,NW,325,5.0,8.0,86,-99.99,,,-99.99,,2013-03-30 22:23:00,
2013-03-30 14:32:00,36.0,32.0,-100.00,NW,325,5.0,8.0,86,-99.99,,,-99.99,,2013-03-30 22:32:00,
2013-03-30 14:43:00,36.0,32.0,-100.00,NW,325,5.0,8.0,86,-99.99,,,-99.99,,2013-03-30 22:43:00,
2013-03-30 14:53:00,36.0,31.0,-100.00,WNW,295,4.0,7.0,84,-99.99,,,-99.99,,2013-03-30 22:53:00,
2013-03-30 15:02:00,36.0,31.0,-100.00,WNW,295,4.0,7.0,84,-99.99,,,-99.99,,2013-03-30 23:02:00,
2013-03-30 15:12:00,36.0,31.0,-100.00,WNW,295,4.0,7.0,84,-99.99,,,-99.99,,2013-03-30 23:12:00,
2013-03-30 15:22:00,36.0,32.0,-100.00,NW,320,4.0,8.0,87,-99.99,,,-99.99,,2013-03-30 23:22:00,
2013-03-30 15:31:00,36.0,32.0,-100.00,NW,320,4.0,8.0,87,-99.99,,,-99.99,,2013-03-30 23:31:00,
2013-03-30 15:42:00,36.0,32.0,-100.00,NW,320,4.0,8.0,87,-99.99,,,-99.99,,2013-03-30 23:42:00,
2013-03-30 15:52:00,37.0,32.0,-100.00,NNW,340,6.0,9.0,82,-99.99,,,-99.99,,2013-03-30 23:52:00,
2013-03-30 16:02:00,37.0,32.0,-100.00,NNW,340,6.0,9.0,82,-99.99,,,-99.99,,2013-03-31 00:02:00,
2013-03-30 16:12:00,37.0,32.0,-100.00,NNW,340,6.0,9.0,82,-99.99,,,-99.99,,2013-03-31 00:12:00,
2013-03-30 16:22:00,35.0,32.0,-100.00,NW,310,2.0,6.0,88,-99.99,,,-99.99,,2013-03-31 00:22:00,
2013-03-30 16:32:00,35.0,32.0,-100.00,NW,310,2.0,6.0,88,-99.99,,,-99.99,,2013-03-31 00:32:00,
2013-03-30 16:43:00,35.0,32.0,-100.00,NW,310,2.0,6.0,88,-99.99,,,-99.99,,2013-03-31 00:43:00,
2013-03-30 16:52:00,35.0,32.0,-100.00,NW,325,5.0,8.0,89,-99.99,,,-99.99,,2013-03-31 00:52:00,
2013-03-30 17:01:00,35.0,32.0,-100.00,NW,325,5.0,8.0,89,-99.99,,,-99.99,,2013-03-31 01:01:00,
2013-03-30 17:12:00,35.0,32.0,-100.00,NW,325,5.0,8.0,89,-99.99,,,-99.99,,2013-03-31 01:12:00,
2013-03-30 17:22:00,35.0,32.0,-100.00,NW,325,3.0,6.0,91,-99.99,,,-99.99,,2013-03-31 01:22:00,
2013-03-30 17:32:00,35.0,32.0,-100.00,NW,325,3.0,6.0,91,-99.99,,,-99.99,,2013-03-31 01:32:00,
2013-03-30 17:42:00,35.0,32.0,-100.00,NW,325,3.0,6.0,91,-99.99,,,-99.99,,2013-03-31 01:42:00,
2013-03-30 17:52:00,35.0,33.0,-100.00,NW,320,2.0,6.0,91,-99.99,,,-99.99,,2013-03-31 01:52:00,
2013-03-30 18:02:00,35.0,33.0,-100.00,NW,320,2.0,6.0,91,-99.99,,,-99.99,,2013-03-31 02:02:00,
2013-03-30 18:12:00,35.0,33.0,-100.00,NW,320,2.0,6.0,91,-99.99,,,-99.99,,2013-03-31 02:12:00,
2013-03-30 18:22:00,36.0,33.0,-100.00,NNW,330,2.0,7.0,90,-99.99,,,-99.99,,2013-03-31 02:22:00,
2013-03-30 18:33:00,36.0,33.0,-100.00,NNW,330,2.0,7.0,90,-99.99,,,-99.99,,2013-03-31 02:33:00,
2013-03-30 18:43:00,36.0,33.0,-100.00,NNW,330,2.0,7.0,90,-99.99,,,-99.99,,2013-03-31 02:43:00,
2013-03-30 18:52:00,35.0,32.0,-100.00,NNW,335,3.0,7.0,88,-99.99,,,-99.99,,2013-03-31 02:52:00,
2013-03-30 19:01:00,35.0,32.0,-100.00,NNW,335,3.0,7.0,88,-99.99,,,-99.99,,2013-03-31 03:01:00,
2013-03-30 19:12:00,35.0,32.0,-100.00,NNW,335,3.0,7.0,88,-99.99,,,-99.99,,2013-03-31 03:12:00,
2013-03-30 19:21:00,34.0,32.0,-100.00,NNE,30,2.0,4.0,91,-99.99,,,-99.99,,2013-03-31 03:21:00,
2013-03-30 19:32:00,34.0,32.0,-100.00,NNE,30,2.0,4.0,91,-99.99,,,-99.99,,2013-03-31 03:32:00,
2013-03-30 19:43:00,34.0,32.0,-100.00,NNE,30,2.0,4.0,91,-99.99,,,-99.99,,2013-03-31 03:43:00,
2013-03-30 19:54:00,34.0,32.0,-100.00,NE,40,1.0,4.0,93,-99.99,,,-99.99,,2013-03-31 03:54:00,
2013-03-30 20:02:00,34.0,-99.9,-100.00,NE,40,1.0,4.0,93,-99.99,,,-99.99,,2013-03-31 04:02:00,
2013-03-30 20:12:00,34.0,32.0,-100.00,NE,40,1.0,4.0,93,-99.99,,,-99.99,,2013-03-31 04:12:00,
2013-03-30 20:22:00,34.0,33.0,-100.00,ENE,60,4.0,6.0,95,-99.99,,,-99.99,,2013-03-31 04:22:00,
2013-03-30 20:32:00,34.0,33.0,-100.00,ENE,60,4.0,6.0,95,-99.99,,,-99.99,,2013-03-31 04:32:00,
2013-03-30 20:42:00,34.0,33.0,-100.00,ENE,60,4.0,6.0,95,-99.99,,,-99.99,,2013-03-31 04:42:00,
2013-03-30 20:52:00,34.0,33.0,-100.00,North,0,1.0,6.0,96,-99.99,,,-99.99,,2013-03-31 04:52:00,
2013-03-30 21:02:00,34.0,33.0,-100.00,North,0,1.0,6.0,96,-99.99,,,-99.99,,2013-03-31 05:02:00,
2013-03-30 21:12:00,34.0,33.0,-100.00,North,0,1.0,6.0,96,-99.99,,,-99.99,,2013-03-31 05:12:00,
2013-03-30 21:22:00,34.0,33.0,-100.00,NE,40,0.0,4.0,96,-99.99,,,-99.99,,2013-03-31 05:22:00,
2013-03-30 21:32:00,34.0,33.0,-100.00,NE,40,0.0,4.0,96,-99.99,,,-99.99,,2013-03-31 05:32:00,
2013-03-30 21:42:00,34.0,33.0,-100.00,NE,40,0.0,4.0,96,-99.99,,,-99.99,,2013-03-31 05:42:00,
2013-03-30 21:52:00,34.0,33.0,-100.00,ESE,110,1.0,1.0,96,-99.99,,,-99.99,,2013-03-31 05:52:00,
2013-03-30 22:01:00,34.0,33.0,-100.00,ESE,110,1.0,1.0,96,-99.99,,,-99.99,,2013-03-31 06:01:00,
2013-03-30 22:11:00,34.0,33.0,-100.00,ESE,110,1.0,1.0,96,-99.99,,,-99.99,,2013-03-31 06:11:00,
2013-03-30 22:21:00,34.0,33.0,-100.00,SSE,155,1.0,3.0,97,-99.99,,,-99.99,,2013-03-31 06:21:00,
2013-03-30 22:32:00,34.0,33.0,-100.00,SSE,155,1.0,3.0,97,-99.99,,,-99.99,,2013-03-31 06:32:00,
2013-03-30 22:42:00,34.0,33.0,-100.00,SSE,155,1.0,3.0,97,-99.99,,,-99.99,,2013-03-31 06:42:00,
2013-03-30 22:52:00,32.0,32.0,-100.00,NW,320,0.0,1.0,97,-99.99,,,-99.99,,2013-03-31 06:52:00,
2013-03-30 23:02:00,32.0,32.0,-100.00,NW,320,0.0,1.0,97,-99.99,,,-99.99,,2013-03-31 07:02:00,
2013-03-30 23:12:00,32.0,32.0,-100.00,NW,320,0.0,1.0,97,-99.99,,,-99.99,,2013-03-31 07:12:00,
2013-03-30 23:22:00,31.0,31.0,-100.00,East,85,0.0,2.0,97,-99.99,,,-99.99,,2013-03-31 07:22:00,
2013-03-30 23:32:00,31.0,31.0,-100.00,East,85,0.0,2.0,97,-99.99,,,-99.99,,2013-03-31 07:32:00,
2013-03-30 23:43:00,31.0,31.0,-100.00,East,85,0.0,2.0,97,-99.99,,,-99.99,,2013-03-31 07:43:00,
2013-03-30 23:52:00,31.0,30.0,-100.00,ESE,105,0.0,1.0,98,-99.99,,,-99.99,,2013-03-31 07:52:00,